TimeMST,TemperatureF,Dew PointF,Humidity,Sea Level PressureIn,VisibilityMPH,Wind Direction,Wind SpeedMPH,Gust SpeedMPH,PrecipitationIn,Events,Conditions,WindDirDegrees,DateUTC
12:15 AM,51.8,35.6,54,30.04,10.0,Calm,Calm,-,N/A,,Clear,0,2014-03-04 07:15:00
12:35 AM,50.0,35.6,58,30.03,10.0,SE,4.6,-,N/A,,Clear,140,2014-03-04 07:35:00
12:55 AM,48.2,35.6,62,30.03,10.0,East,6.9,-,N/A,,Clear,100,2014-03-04 07:55:00
1:15 AM,48.2,35.6,62,30.04,10.0,NE,4.6,-,N/A,,Clear,50,2014-03-04 08:15:00
1:35 AM,50.0,35.6,58,30.04,10.0,North,3.5,-,N/A,,Clear,10,2014-03-04 08:35:00
1:55 AM,48.2,35.6,62,30.05,10.0,NNW,4.6,-,N/A,,Clear,330,2014-03-04 08:55:00
2:15 AM,48.2,35.6,62,30.04,10.0,SSE,4.6,-,N/A,,Clear,150,2014-03-04 09:15:00
2:35 AM,48.2,35.6,62,30.03,10.0,South,5.8,-,N/A,,Clear,170,2014-03-04 09:35:00
2:55 AM,48.2,35.6,62,30.03,10.0,Calm,Calm,-,N/A,,Clear,0,2014-03-04 09:55:00
3:15 AM,48.2,35.6,62,30.02,10.0,South,4.6,-,N/A,,Clear,170,2014-03-04 10:15:00
3:35 AM,48.2,35.6,62,30.01,10.0,Calm,Calm,-,N/A,,Clear,0,2014-03-04 10:35:00
3:55 AM,48.2,35.6,62,30.00,10.0,ENE,4.6,-,N/A,,Clear,60,2014-03-04 10:55:00
4:15 AM,48.2,35.6,62,30.01,10.0,Calm,Calm,-,N/A,,Clear,0,2014-03-04 11:15:00
4:35 AM,48.2,33.8,58,30.01,10.0,Calm,Calm,-,N/A,,Clear,0,2014-03-04 11:35:00
4:55 AM,48.2,35.6,62,30.00,10.0,Calm,Calm,-,N/A,,Clear,0,2014-03-04 11:55:00
5:15 AM,44.6,37.4,76,29.99,10.0,SSE,4.6,-,N/A,,Clear,150,2014-03-04 12:15:00
5:35 AM,44.6,37.4,76,29.98,10.0,Calm,Calm,-,N/A,,Clear,0,2014-03-04 12:35:00
5:55 AM,46.4,35.6,66,29.97,10.0,Calm,Calm,-,N/A,,Clear,0,2014-03-04 12:55:00
6:15 AM,46.4,35.6,66,29.98,10.0,Calm,Calm,-,N/A,,Clear,0,2014-03-04 13:15:00
6:35 AM,44.6,35.6,71,29.97,10.0,Calm,Calm,-,N/A,,Clear,0,2014-03-04 13:35:00
6:55 AM,44.6,35.6,71,29.98,10.0,North,6.9,-,N/A,,Clear,360,2014-03-04 13:55:00
7:15 AM,44.6,35.6,71,29.98,10.0,Calm,Calm,-,N/A,,Clear,0,2014-03-04 14:15:00
7:35 AM,44.6,35.6,71,29.98,10.0,SSW,3.5,-,N/A,,Clear,210,2014-03-04 14:35:00
7:55 AM,44.6,35.6,71,29.98,10.0,SSW,3.5,-,N/A,,Clear,200,2014-03-04 14:55:00
8:15 AM,44.6,35.6,71,30.00,10.0,SSW,3.5,-,N/A,,Clear,200,2014-03-04 15:15:00
8:35 AM,46.4,37.4,71,30.00,10.0,Calm,Calm,-,N/A,,Clear,0,2014-03-04 15:35:00
8:55 AM,46.4,37.4,71,30.00,10.0,SSE,3.5,-,N/A,,Clear,150,2014-03-04 15:55:00
9:15 AM,48.2,37.4,66,29.99,10.0,SSE,4.6,-,N/A,,Clear,160,2014-03-04 16:15:00
9:35 AM,50.0,37.4,62,30.00,10.0,SSE,3.5,-,N/A,,Clear,160,2014-03-04 16:35:00
9:55 AM,51.8,37.4,58,30.00,10.0,SSE,3.5,-,N/A,,Scattered Clouds,160,2014-03-04 16:55:00
10:15 AM,51.8,37.4,58,30.00,10.0,Calm,Calm,-,N/A,,Scattered Clouds,0,2014-03-04 17:15:00
10:35 AM,53.6,37.4,54,29.99,10.0,Calm,Calm,-,N/A,,Partly Cloudy,0,2014-03-04 17:35:00
10:55 AM,53.6,37.4,54,29.99,10.0,Calm,Calm,-,N/A,,Partly Cloudy,0,2014-03-04 17:55:00
11:15 AM,53.6,37.4,54,30.00,10.0,Calm,Calm,-,N/A,,Partly Cloudy,0,2014-03-04 18:15:00
11:35 AM,55.4,37.4,51,29.99,10.0,Calm,Calm,-,N/A,,Partly Cloudy,0,2014-03-04 18:35:00
11:55 AM,57.2,37.4,48,29.98,10.0,SW,3.5,-,N/A,,Clear,220,2014-03-04 18:55:00
12:15 PM,57.2,37.4,48,29.98,10.0,Calm,Calm,-,N/A,,Clear,0,2014-03-04 19:15:00
12:35 PM,60.8,37.4,42,29.97,10.0,Calm,Calm,-,N/A,,Clear,0,2014-03-04 19:35:00
12:55 PM,60.8,37.4,42,29.97,10.0,Calm,Calm,-,N/A,,Clear,0,2014-03-04 19:55:00
1:15 PM,62.6,35.6,37,29.97,10.0,West,5.8,-,N/A,,Clear,270,2014-03-04 20:15:00
1:35 PM,64.4,37.4,37,29.96,10.0,SW,8.1,-,N/A,,Clear,230,2014-03-04 20:35:00
1:55 PM,64.4,35.6,34,29.96,10.0,West,10.4,-,N/A,,Clear,260,2014-03-04 20:55:00
2:15 PM,64.4,35.6,34,29.95,10.0,WSW,9.2,16.1,N/A,,Clear,250,2014-03-04 21:15:00
2:35 PM,66.2,35.6,32,29.95,10.0,WSW,12.7,-,N/A,,Clear,240,2014-03-04 21:35:00
2:55 PM,66.2,35.6,32,29.95,10.0,WSW,8.1,-,N/A,,Scattered Clouds,250,2014-03-04 21:55:00
3:15 PM,66.2,35.6,32,29.94,10.0,West,13.8,19.6,N/A,,Mostly Cloudy,260,2014-03-04 22:15:00
3:35 PM,66.2,35.6,32,29.95,10.0,WNW,10.4,16.1,N/A,,Mostly Cloudy,300,2014-03-04 22:35:00
3:55 PM,68.0,35.6,30,29.95,10.0,WNW,17.3,20.7,N/A,,Mostly Cloudy,300,2014-03-04 22:55:00
4:15 PM,68.0,35.6,30,29.95,10.0,NNW,10.4,19.6,N/A,,Clear,330,2014-03-04 23:15:00
4:35 PM,68.0,33.8,28,29.95,10.0,NW,12.7,19.6,N/A,,Partly Cloudy,310,2014-03-04 23:35:00
4:55 PM,69.8,35.6,28,29.95,10.0,NW,12.7,-,N/A,,Clear,320,2014-03-04 23:55:00
5:15 PM,68.0,33.8,28,29.96,10.0,NNW,13.8,17.3,N/A,,Clear,340,2014-03-05 00:15:00
5:35 PM,66.2,35.6,32,29.98,10.0,NE,20.7,25.3,N/A,,Partly Cloudy,40,2014-03-05 00:35:00
5:55 PM,64.4,35.6,34,29.98,10.0,ENE,15.0,18.4,N/A,,Clear,60,2014-03-05 00:55:00
6:15 PM,62.6,35.6,37,29.99,10.0,ENE,21.9,28.8,N/A,,Clear,60,2014-03-05 01:15:00
6:35 PM,60.8,35.6,39,30.00,10.0,ENE,11.5,-,N/A,,Clear,60,2014-03-05 01:35:00
6:55 PM,60.8,33.8,36,30.00,10.0,ENE,13.8,27.6,N/A,,Clear,60,2014-03-05 01:55:00
7:15 PM,60.8,33.8,36,30.02,10.0,ENE,17.3,-,N/A,,Clear,60,2014-03-05 02:15:00
7:35 PM,60.8,33.8,36,30.03,10.0,NE,17.3,24.2,N/A,,Clear,40,2014-03-05 02:35:00
7:55 PM,60.8,32.0,34,30.03,10.0,NE,15.0,-,N/A,,Clear,50,2014-03-05 02:55:00
8:15 PM,59.0,30.2,34,30.03,10.0,NE,19.6,26.5,N/A,,Clear,50,2014-03-05 03:15:00
8:35 PM,59.0,30.2,34,30.04,10.0,NE,17.3,-,N/A,,Clear,40,2014-03-05 03:35:00
8:55 PM,59.0,28.4,31,30.04,10.0,ENE,19.6,26.5,N/A,,Clear,60,2014-03-05 03:55:00
9:15 PM,57.2,28.4,33,30.05,10.0,ENE,12.7,21.9,N/A,,Clear,60,2014-03-05 04:15:00
9:35 PM,57.2,30.2,36,30.06,10.0,NE,17.3,23.0,N/A,,Clear,50,2014-03-05 04:35:00
9:55 PM,57.2,30.2,36,30.06,10.0,NE,11.5,-,N/A,,Clear,50,2014-03-05 04:55:00
10:15 PM,55.4,28.4,36,30.08,10.0,WNW,3.5,-,N/A,,Clear,300,2014-03-05 05:15:00
10:35 PM,55.4,30.2,38,30.09,10.0,SW,3.5,-,N/A,,Clear,220,2014-03-05 05:35:00
10:55 PM,53.6,30.2,41,30.09,10.0,SSW,3.5,-,N/A,,Clear,210,2014-03-05 05:55:00
11:15 PM,50.0,30.2,47,30.09,10.0,ESE,3.5,-,N/A,,Clear,120,2014-03-05 06:15:00
11:35 PM,51.8,30.2,44,30.09,10.0,WSW,4.6,-,N/A,,Clear,240,2014-03-05 06:35:00
11:55 PM,51.8,30.2,44,30.09,10.0,SW,4.6,-,N/A,,Clear,220,2014-03-05 06:55:00